Year,Month,Day,Hour,Minute,Value (Times are PST for windgust in km/hr)
2010,04,01,00,00,8.10
2010,04,01,00,01,6.40
2010,04,01,00,02,8.10
2010,04,01,00,03,8.10
2010,04,01,00,04,8.10
2010,04,01,00,05,9.60
2010,04,01,00,06,8.10
2010,04,01,00,07,9.60
2010,04,01,00,08,8.10
2010,04,01,00,09,8.10
2010,04,01,00,10,9.60
2010,04,01,00,11,9.60
2010,04,01,00,12,9.60
2010,04,01,00,13,9.60
2010,04,01,00,14,9.60
2010,04,01,00,15,8.10
2010,04,01,00,16,8.10
2010,04,01,00,17,8.10
2010,04,01,00,18,8.10
2010,04,01,00,19,8.10
2010,04,01,00,20,6.40
2010,04,01,00,21,6.40
2010,04,01,00,22,6.40
2010,04,01,00,23,6.40
2010,04,01,00,24,6.40
2010,04,01,00,25,6.40
2010,04,01,00,26,6.40
2010,04,01,00,27,6.40
2010,04,01,00,28,8.10
2010,04,01,00,29,6.40
2010,04,01,00,30,8.10
2010,04,01,00,31,8.10
2010,04,01,00,32,9.60
2010,04,01,00,33,9.60
2010,04,01,00,34,9.60
2010,04,01,00,35,8.10
2010,04,01,00,36,8.10
2010,04,01,00,37,8.10
2010,04,01,00,38,8.10
2010,04,01,00,39,9.60
2010,04,01,00,40,8.10
2010,04,01,00,41,6.40
2010,04,01,00,42,6.40
2010,04,01,00,43,6.40
2010,04,01,00,44,6.40
2010,04,01,00,45,8.10
2010,04,01,00,46,8.10
2010,04,01,00,47,6.40
2010,04,01,00,48,4.80
2010,04,01,00,49,4.80
2010,04,01,00,50,4.80
2010,04,01,00,51,4.80
2010,04,01,00,52,6.40
2010,04,01,00,53,6.40
2010,04,01,00,54,8.10
2010,04,01,00,55,8.10
2010,04,01,00,56,8.10
2010,04,01,00,57,8.10
2010,04,01,00,58,9.60
2010,04,01,00,59,8.10
2010,04,01,01,00,8.10
2010,04,01,01,01,9.60
2010,04,01,01,02,8.10
2010,04,01,01,03,8.10
2010,04,01,01,04,8.10
2010,04,01,01,05,8.10
2010,04,01,01,06,8.10
2010,04,01,01,07,8.10
2010,04,01,01,08,6.40
2010,04,01,01,09,6.40
2010,04,01,01,10,6.40
2010,04,01,01,11,8.10
2010,04,01,01,12,8.10
2010,04,01,01,13,6.40
2010,04,01,01,14,8.10
2010,04,01,01,15,8.10
2010,04,01,01,16,8.10
2010,04,01,01,17,8.10
2010,04,01,01,18,8.10
2010,04,01,01,19,8.10
2010,04,01,01,20,8.10
2010,04,01,01,21,6.40
2010,04,01,01,22,6.40
2010,04,01,01,23,6.40
2010,04,01,01,24,6.40
2010,04,01,01,25,6.40
2010,04,01,01,26,8.10
2010,04,01,01,27,8.10
2010,04,01,01,28,9.60
2010,04,01,01,29,9.60
2010,04,01,01,30,9.60
2010,04,01,01,31,8.10
2010,04,01,01,32,8.10
2010,04,01,01,33,8.10
2010,04,01,01,34,8.10
2010,04,01,01,35,8.10
2010,04,01,01,36,8.10
2010,04,01,01,37,8.10
2010,04,01,01,38,8.10
2010,04,01,01,39,8.10
2010,04,01,01,40,8.10
2010,04,01,01,41,8.10
2010,04,01,01,42,8.10
2010,04,01,01,43,8.10
2010,04,01,01,44,8.10
2010,04,01,01,45,8.10
2010,04,01,01,46,8.10
2010,04,01,01,47,8.10
2010,04,01,01,48,8.10
2010,04,01,01,49,8.10
2010,04,01,01,50,8.10
2010,04,01,01,51,8.10
2010,04,01,01,52,8.10
2010,04,01,01,53,9.60
2010,04,01,01,54,9.60
2010,04,01,01,55,9.60
2010,04,01,01,56,11.30
2010,04,01,01,57,9.60
2010,04,01,01,58,9.60
2010,04,01,01,59,8.10
2010,04,01,02,00,11.30
2010,04,01,02,01,9.60
2010,04,01,02,02,9.60
2010,04,01,02,03,9.60
2010,04,01,02,04,8.10
2010,04,01,02,05,6.40
2010,04,01,02,06,6.40
2010,04,01,02,07,8.10
2010,04,01,02,08,6.40
2010,04,01,02,09,6.40
2010,04,01,02,10,4.80
2010,04,01,02,11,4.80
2010,04,01,02,12,6.40
2010,04,01,02,13,8.10
2010,04,01,02,14,8.10
2010,04,01,02,15,8.10
2010,04,01,02,16,8.10
2010,04,01,02,17,8.10
2010,04,01,02,18,6.40
2010,04,01,02,19,8.10
2010,04,01,02,20,4.80
2010,04,01,02,21,4.80
2010,04,01,02,22,4.80
2010,04,01,02,23,4.80
2010,04,01,02,24,6.40
2010,04,01,02,25,4.80
2010,04,01,02,26,4.80
2010,04,01,02,27,4.80
2010,04,01,02,28,4.80
2010,04,01,02,29,4.80
2010,04,01,02,30,6.40
2010,04,01,02,31,6.40
2010,04,01,02,32,8.10
2010,04,01,02,33,8.10
2010,04,01,02,34,6.40
2010,04,01,02,35,8.10
2010,04,01,02,36,8.10
2010,04,01,02,37,6.40
2010,04,01,02,38,6.40
2010,04,01,02,39,6.40
2010,04,01,02,40,6.40
2010,04,01,02,41,8.10
2010,04,01,02,42,6.40
2010,04,01,02,43,6.40
2010,04,01,02,44,6.40
2010,04,01,02,45,8.10
2010,04,01,02,46,8.10
2010,04,01,02,47,8.10
2010,04,01,02,48,8.10
2010,04,01,02,49,6.40
2010,04,01,02,50,8.10
2010,04,01,02,51,8.10
2010,04,01,02,52,8.10
2010,04,01,02,53,6.40
2010,04,01,02,54,8.10
2010,04,01,02,55,4.80
2010,04,01,02,56,3.20
2010,04,01,02,57,4.80
2010,04,01,02,58,6.40
2010,04,01,02,59,6.40
2010,04,01,03,00,4.80
2010,04,01,03,01,4.80
2010,04,01,03,02,4.80
2010,04,01,03,03,4.80
2010,04,01,03,04,8.10
2010,04,01,03,05,8.10
2010,04,01,03,06,8.10
2010,04,01,03,07,8.10
2010,04,01,03,08,9.60
2010,04,01,03,09,8.10
2010,04,01,03,10,6.40
2010,04,01,03,11,8.10
2010,04,01,03,12,8.10
2010,04,01,03,13,8.10
2010,04,01,03,14,6.40
2010,04,01,03,15,8.10
2010,04,01,03,16,9.60
2010,04,01,03,17,8.10
2010,04,01,03,18,8.10
2010,04,01,03,19,8.10
2010,04,01,03,20,8.10
2010,04,01,03,21,8.10
2010,04,01,03,22,8.10
2010,04,01,03,23,4.80
2010,04,01,03,24,4.80
2010,04,01,03,25,6.40
2010,04,01,03,26,4.80
2010,04,01,03,27,4.80
2010,04,01,03,28,4.80
2010,04,01,03,29,6.40
2010,04,01,03,30,6.40
2010,04,01,03,31,6.40
2010,04,01,03,32,6.40
2010,04,01,03,33,6.40
2010,04,01,03,34,4.80
2010,04,01,03,35,4.80
2010,04,01,03,36,3.20
2010,04,01,03,37,3.20
2010,04,01,03,38,4.80
2010,04,01,03,39,8.10
2010,04,01,03,40,8.10
2010,04,01,03,41,8.10
2010,04,01,03,42,6.40
2010,04,01,03,43,6.40
2010,04,01,03,44,6.40
2010,04,01,03,45,6.40
2010,04,01,03,46,6.40
2010,04,01,03,47,6.40
2010,04,01,03,48,8.10
2010,04,01,03,49,8.10
2010,04,01,03,50,8.10
2010,04,01,03,51,6.40
2010,04,01,03,52,8.10
2010,04,01,03,53,9.60
2010,04,01,03,54,8.10
2010,04,01,03,55,8.10
2010,04,01,03,56,6.40
2010,04,01,03,57,6.40
2010,04,01,03,58,6.40
2010,04,01,03,59,4.80
2010,04,01,04,00,4.80
2010,04,01,04,01,4.80
2010,04,01,04,02,4.80
2010,04,01,04,03,6.40
2010,04,01,04,04,6.40
2010,04,01,04,05,6.40
2010,04,01,04,06,4.80
2010,04,01,04,07,4.80
2010,04,01,04,08,3.20
2010,04,01,04,09,4.80
2010,04,01,04,10,4.80
2010,04,01,04,11,8.10
2010,04,01,04,12,3.20
2010,04,01,04,13,3.20
2010,04,01,04,14,4.80
2010,04,01,04,15,0.00
2010,04,01,04,16,3.20
2010,04,01,04,17,3.20
2010,04,01,04,18,3.20
2010,04,01,04,19,4.80
2010,04,01,04,20,4.80
2010,04,01,04,21,4.80
2010,04,01,04,22,4.80
2010,04,01,04,23,1.60
2010,04,01,04,24,1.60
2010,04,01,04,25,0.00
2010,04,01,04,26,0.00
2010,04,01,04,27,0.00
2010,04,01,04,28,4.80
2010,04,01,04,29,6.40
2010,04,01,04,30,4.80
2010,04,01,04,31,4.80
2010,04,01,04,32,6.40
2010,04,01,04,33,6.40
2010,04,01,04,34,6.40
2010,04,01,04,35,6.40
2010,04,01,04,36,9.60
2010,04,01,04,37,8.10
2010,04,01,04,38,8.10
2010,04,01,04,39,9.60
2010,04,01,04,40,9.60
2010,04,01,04,41,9.60
2010,04,01,04,42,16.10
2010,04,01,04,43,9.60
2010,04,01,04,44,14.50
2010,04,01,04,45,11.30
2010,04,01,04,46,9.60
2010,04,01,04,47,9.60
2010,04,01,04,48,11.30
2010,04,01,04,49,11.30
2010,04,01,04,50,9.60
2010,04,01,04,51,8.10
2010,04,01,04,52,8.10
2010,04,01,04,53,8.10
2010,04,01,04,54,8.10
2010,04,01,04,55,11.30
2010,04,01,04,56,8.10
2010,04,01,04,57,9.60
2010,04,01,04,58,9.60
2010,04,01,04,59,6.40
2010,04,01,05,00,9.60
2010,04,01,05,01,9.60
2010,04,01,05,02,6.40
2010,04,01,05,03,8.10
2010,04,01,05,04,8.10
2010,04,01,05,05,8.10
2010,04,01,05,06,9.60
2010,04,01,05,07,8.10
2010,04,01,05,08,8.10
2010,04,01,05,09,9.60
2010,04,01,05,10,9.60
2010,04,01,05,11,8.10
2010,04,01,05,12,8.10
2010,04,01,05,13,8.10
2010,04,01,05,14,6.40
2010,04,01,05,15,8.10
2010,04,01,05,16,9.60
2010,04,01,05,17,9.60
2010,04,01,05,18,8.10
2010,04,01,05,19,8.10
2010,04,01,05,20,8.10
2010,04,01,05,21,8.10
2010,04,01,05,22,8.10
2010,04,01,05,23,6.40
2010,04,01,05,24,8.10
2010,04,01,05,25,6.40
2010,04,01,05,26,9.60
2010,04,01,05,27,8.10
2010,04,01,05,28,8.10
2010,04,01,05,29,6.40
2010,04,01,05,30,6.40
2010,04,01,05,31,8.10
2010,04,01,05,32,6.40
2010,04,01,05,33,4.80
2010,04,01,05,34,6.40
2010,04,01,05,35,8.10
2010,04,01,05,36,4.80
2010,04,01,05,37,6.40
2010,04,01,05,38,8.10
2010,04,01,05,39,9.60
2010,04,01,05,40,6.40
2010,04,01,05,41,9.60
2010,04,01,05,42,8.10
2010,04,01,05,43,11.30
2010,04,01,05,44,9.60
2010,04,01,05,45,8.10
2010,04,01,05,46,4.80
2010,04,01,05,47,8.10
2010,04,01,05,48,8.10
2010,04,01,05,49,8.10
2010,04,01,05,50,9.60
2010,04,01,05,51,8.10
2010,04,01,05,52,8.10
2010,04,01,05,53,9.60
2010,04,01,05,54,8.10
2010,04,01,05,55,9.60
2010,04,01,05,56,9.60
2010,04,01,05,57,12.90
2010,04,01,05,58,14.50
2010,04,01,05,59,9.60
2010,04,01,06,00,8.10
2010,04,01,06,01,6.40
2010,04,01,06,02,8.10
2010,04,01,06,03,9.60
2010,04,01,06,04,8.10
2010,04,01,06,05,8.10
2010,04,01,06,06,8.10
2010,04,01,06,07,9.60
2010,04,01,06,08,9.60
2010,04,01,06,09,6.40
2010,04,01,06,10,8.10
2010,04,01,06,11,9.60
2010,04,01,06,12,9.60
2010,04,01,06,13,9.60
2010,04,01,06,14,11.30
2010,04,01,06,15,9.60
2010,04,01,06,16,9.60
2010,04,01,06,17,9.60
2010,04,01,06,18,9.60
2010,04,01,06,19,9.60
2010,04,01,06,20,9.60
2010,04,01,06,21,9.60
2010,04,01,06,22,9.60
2010,04,01,06,23,9.60
2010,04,01,06,24,8.10
2010,04,01,06,25,8.10
2010,04,01,06,26,6.40
2010,04,01,06,27,6.40
2010,04,01,06,28,6.40
2010,04,01,06,29,6.40
2010,04,01,06,30,8.10
2010,04,01,06,31,9.60
2010,04,01,06,32,8.10
2010,04,01,06,33,8.10
2010,04,01,06,34,6.40
2010,04,01,06,35,4.80
2010,04,01,06,36,4.80
2010,04,01,06,37,6.40
2010,04,01,06,38,8.10
2010,04,01,06,39,8.10
2010,04,01,06,40,9.60
2010,04,01,06,41,8.10
2010,04,01,06,42,8.10
2010,04,01,06,43,9.60
2010,04,01,06,44,8.10
2010,04,01,06,45,9.60
2010,04,01,06,46,11.30
2010,04,01,06,47,11.30
2010,04,01,06,48,9.60
2010,04,01,06,49,11.30
2010,04,01,06,50,14.50
2010,04,01,06,51,16.10
2010,04,01,06,52,16.10
2010,04,01,06,53,16.10
2010,04,01,06,54,17.70
2010,04,01,06,55,14.50
2010,04,01,06,56,17.70
2010,04,01,06,57,17.70
2010,04,01,06,58,17.70
2010,04,01,06,59,14.50
2010,04,01,07,00,16.10
2010,04,01,07,01,17.70
2010,04,01,07,02,16.10
2010,04,01,07,03,16.10
2010,04,01,07,04,19.30
2010,04,01,07,05,16.10
2010,04,01,07,06,14.50
2010,04,01,07,07,17.70
2010,04,01,07,08,16.10
2010,04,01,07,09,12.90
2010,04,01,07,10,14.50
2010,04,01,07,11,9.60
2010,04,01,07,12,11.30
2010,04,01,07,13,12.90
2010,04,01,07,14,8.10
2010,04,01,07,15,11.30
2010,04,01,07,16,11.30
2010,04,01,07,17,11.30
2010,04,01,07,18,14.50
2010,04,01,07,19,14.50
2010,04,01,07,20,16.10
2010,04,01,07,21,14.50
2010,04,01,07,22,14.50
2010,04,01,07,23,16.10
2010,04,01,07,24,12.90
2010,04,01,07,25,12.90
2010,04,01,07,26,16.10
2010,04,01,07,27,11.30
2010,04,01,07,28,9.60
2010,04,01,07,29,9.60
2010,04,01,07,30,8.10
2010,04,01,07,31,6.40
2010,04,01,07,32,9.60
2010,04,01,07,33,9.60
2010,04,01,07,34,11.30
2010,04,01,07,35,11.30
2010,04,01,07,36,11.30
2010,04,01,07,37,11.30
2010,04,01,07,38,9.60
2010,04,01,07,39,9.60
2010,04,01,07,40,6.40
2010,04,01,07,41,4.80
2010,04,01,07,42,4.80
2010,04,01,07,43,8.10
2010,04,01,07,44,8.10
2010,04,01,07,45,9.60
2010,04,01,07,46,8.10
2010,04,01,07,47,3.20
2010,04,01,07,48,8.10
2010,04,01,07,49,8.10
2010,04,01,07,50,8.10
2010,04,01,07,51,6.40
2010,04,01,07,52,6.40
2010,04,01,07,53,4.80
2010,04,01,07,54,3.20
2010,04,01,07,55,4.80
2010,04,01,07,56,6.40
2010,04,01,07,57,6.40
2010,04,01,07,58,9.60
2010,04,01,07,59,6.40
2010,04,01,08,00,6.40
2010,04,01,08,01,8.10
2010,04,01,08,02,6.40
2010,04,01,08,03,6.40
2010,04,01,08,04,6.40
2010,04,01,08,05,4.80
2010,04,01,08,06,4.80
2010,04,01,08,07,4.80
2010,04,01,08,08,4.80
2010,04,01,08,09,6.40
2010,04,01,08,10,8.10
2010,04,01,08,11,4.80
2010,04,01,08,12,4.80
2010,04,01,08,13,6.40
2010,04,01,08,14,4.80
2010,04,01,08,15,8.10
2010,04,01,08,16,6.40
2010,04,01,08,17,6.40
2010,04,01,08,18,4.80
2010,04,01,08,19,4.80
2010,04,01,08,20,6.40
2010,04,01,08,21,8.10
2010,04,01,08,22,8.10
2010,04,01,08,23,6.40
2010,04,01,08,24,6.40
2010,04,01,08,25,8.10
2010,04,01,08,26,8.10
2010,04,01,08,27,8.10
2010,04,01,08,28,9.60
2010,04,01,08,29,6.40
2010,04,01,08,30,8.10
2010,04,01,08,31,6.40
2010,04,01,08,32,6.40
2010,04,01,08,33,6.40
2010,04,01,08,34,8.10
2010,04,01,08,35,6.40
2010,04,01,08,36,8.10
2010,04,01,08,37,6.40
2010,04,01,08,38,6.40
2010,04,01,08,39,3.20
2010,04,01,08,40,9.60
2010,04,01,08,41,8.10
2010,04,01,08,42,9.60
2010,04,01,08,43,8.10
2010,04,01,08,44,8.10
2010,04,01,08,45,8.10
2010,04,01,08,46,8.10
2010,04,01,08,47,11.30
2010,04,01,08,48,9.60
2010,04,01,08,49,11.30
2010,04,01,08,50,11.30
2010,04,01,08,51,11.30
2010,04,01,08,52,12.90
2010,04,01,08,53,14.50
2010,04,01,08,54,11.30
2010,04,01,08,55,9.60
2010,04,01,08,56,8.10
2010,04,01,08,57,8.10
2010,04,01,08,58,8.10
2010,04,01,08,59,8.10
2010,04,01,09,00,4.80
2010,04,01,09,01,4.80
2010,04,01,09,02,4.80
2010,04,01,09,03,8.10
2010,04,01,09,04,9.60
2010,04,01,09,05,11.30
2010,04,01,09,06,11.30
2010,04,01,09,07,9.60
2010,04,01,09,08,9.60
2010,04,01,09,09,9.60
2010,04,01,09,10,9.60
2010,04,01,09,11,11.30
2010,04,01,09,12,11.30
2010,04,01,09,13,14.50
2010,04,01,09,14,14.50
2010,04,01,09,15,12.90
2010,04,01,09,16,9.60
2010,04,01,09,17,11.30
2010,04,01,09,18,14.50
2010,04,01,09,19,9.60
2010,04,01,09,20,11.30
2010,04,01,09,21,16.10
2010,04,01,09,22,14.50
2010,04,01,09,23,9.60
2010,04,01,09,24,9.60
2010,04,01,09,25,11.30
2010,04,01,09,26,9.60
2010,04,01,09,27,8.10
2010,04,01,09,28,8.10
2010,04,01,09,29,11.30
2010,04,01,09,30,8.10
2010,04,01,09,31,8.10
2010,04,01,09,32,11.30
2010,04,01,09,33,11.30
2010,04,01,09,34,8.10
2010,04,01,09,35,9.60
2010,04,01,09,36,11.30
2010,04,01,09,37,9.60
2010,04,01,09,38,6.40
2010,04,01,09,39,8.10
2010,04,01,09,40,4.80
2010,04,01,09,41,8.10
2010,04,01,09,42,11.30
2010,04,01,09,43,8.10
2010,04,01,09,44,8.10
2010,04,01,09,45,14.50
2010,04,01,09,46,11.30
2010,04,01,09,47,9.60
2010,04,01,09,48,8.10
2010,04,01,09,49,9.60
2010,04,01,09,50,4.80
2010,04,01,09,51,6.40
2010,04,01,09,52,14.50
2010,04,01,09,53,14.50
2010,04,01,09,54,8.10
2010,04,01,09,55,8.10
2010,04,01,09,56,8.10
2010,04,01,09,57,8.10
2010,04,01,09,58,9.60
2010,04,01,09,59,9.60
2010,04,01,10,00,6.40
2010,04,01,10,01,8.10
2010,04,01,10,02,11.30
2010,04,01,10,03,9.60
2010,04,01,10,04,8.10
2010,04,01,10,05,12.90
2010,04,01,10,06,9.60
2010,04,01,10,07,14.50
2010,04,01,10,08,9.60
2010,04,01,10,09,11.30
2010,04,01,10,10,11.30
2010,04,01,10,11,11.30
2010,04,01,10,12,11.30
2010,04,01,10,13,9.60
2010,04,01,10,14,8.10
2010,04,01,10,15,8.10
2010,04,01,10,16,8.10
2010,04,01,10,17,11.30
2010,04,01,10,18,9.60
2010,04,01,10,19,9.60
2010,04,01,10,20,12.90
2010,04,01,10,21,16.10
2010,04,01,10,22,12.90
2010,04,01,10,23,9.60
2010,04,01,10,24,8.10
2010,04,01,10,25,11.30
2010,04,01,10,26,9.60
2010,04,01,10,27,9.60
2010,04,01,10,28,14.50
2010,04,01,10,29,9.60
2010,04,01,10,30,9.60
2010,04,01,10,31,11.30
2010,04,01,10,32,16.10
2010,04,01,10,33,16.10
2010,04,01,10,34,17.70
2010,04,01,10,35,9.60
2010,04,01,10,36,9.60
2010,04,01,10,37,9.60
2010,04,01,10,38,8.10
2010,04,01,10,39,8.10
2010,04,01,10,40,11.30
2010,04,01,10,41,11.30
2010,04,01,10,42,14.50
2010,04,01,10,43,11.30
2010,04,01,10,44,16.10
2010,04,01,10,45,11.30
2010,04,01,10,46,6.40
2010,04,01,10,47,6.40
2010,04,01,10,48,8.10
2010,04,01,10,49,8.10
2010,04,01,10,50,4.80
2010,04,01,10,51,3.20
2010,04,01,10,52,1.60
2010,04,01,10,53,6.40
2010,04,01,10,54,11.30
2010,04,01,10,55,9.60
2010,04,01,10,56,9.60
2010,04,01,10,57,9.60
2010,04,01,10,58,8.10
2010,04,01,10,59,8.10
2010,04,01,11,00,6.40
2010,04,01,11,01,6.40
2010,04,01,11,02,9.60
2010,04,01,11,03,9.60
2010,04,01,11,04,9.60
2010,04,01,11,05,11.30
2010,04,01,11,06,9.60
2010,04,01,11,07,8.10
2010,04,01,11,08,9.60
2010,04,01,11,09,8.10
2010,04,01,11,10,8.10
2010,04,01,11,11,11.30
2010,04,01,11,12,11.30
2010,04,01,11,13,8.10
2010,04,01,11,14,9.60
2010,04,01,11,15,17.70
2010,04,01,11,16,17.70
2010,04,01,11,17,16.10
2010,04,01,11,18,16.10
2010,04,01,11,19,11.30
2010,04,01,11,20,14.50
2010,04,01,11,21,14.50
2010,04,01,11,22,9.60
2010,04,01,11,23,9.60
2010,04,01,11,24,9.60
2010,04,01,11,25,8.10
2010,04,01,11,26,8.10
2010,04,01,11,27,8.10
2010,04,01,11,28,9.60
2010,04,01,11,29,9.60
2010,04,01,11,30,4.80
2010,04,01,11,31,6.40
2010,04,01,11,32,11.30
2010,04,01,11,33,14.50
2010,04,01,11,34,8.10
2010,04,01,11,35,9.60
2010,04,01,11,36,8.10
2010,04,01,11,37,6.40
2010,04,01,11,38,4.80
2010,04,01,11,39,3.20
2010,04,01,11,40,3.20
2010,04,01,11,41,4.80
2010,04,01,11,42,1.60
2010,04,01,11,43,11.30
2010,04,01,11,44,9.60
2010,04,01,11,45,9.60
2010,04,01,11,46,6.40
2010,04,01,11,47,6.40
2010,04,01,11,48,8.10
2010,04,01,11,49,3.20
2010,04,01,11,50,4.80
2010,04,01,11,51,9.60
2010,04,01,11,52,9.60
2010,04,01,11,53,14.50
2010,04,01,11,54,14.50
2010,04,01,11,55,16.10
2010,04,01,11,56,9.60
2010,04,01,11,57,11.30
2010,04,01,11,58,11.30
2010,04,01,11,59,11.30
2010,04,01,12,00,9.60
2010,04,01,12,01,14.50
2010,04,01,12,02,11.30
2010,04,01,12,03,8.10
2010,04,01,12,04,4.80
2010,04,01,12,05,8.10
2010,04,01,12,06,16.10
2010,04,01,12,07,17.70
2010,04,01,12,08,6.40
2010,04,01,12,09,11.30
2010,04,01,12,10,11.30
2010,04,01,12,11,11.30
2010,04,01,12,12,11.30
2010,04,01,12,13,6.40
2010,04,01,12,14,8.10
2010,04,01,12,15,8.10
2010,04,01,12,16,6.40
2010,04,01,12,17,4.80
2010,04,01,12,18,3.20
2010,04,01,12,19,3.20
2010,04,01,12,20,3.20
2010,04,01,12,21,4.80
2010,04,01,12,22,4.80
2010,04,01,12,23,8.10
2010,04,01,12,24,9.60
2010,04,01,12,25,6.40
2010,04,01,12,26,4.80
2010,04,01,12,27,4.80
2010,04,01,12,28,8.10
2010,04,01,12,29,8.10
2010,04,01,12,30,8.10
2010,04,01,12,31,3.20
2010,04,01,12,32,4.80
2010,04,01,12,33,6.40
2010,04,01,12,34,4.80
2010,04,01,12,35,8.10
2010,04,01,12,36,6.40
2010,04,01,12,37,4.80
2010,04,01,12,38,4.80
2010,04,01,12,39,4.80
2010,04,01,12,40,4.80
2010,04,01,12,41,8.10
2010,04,01,12,42,8.10
2010,04,01,12,43,6.40
2010,04,01,12,44,6.40
2010,04,01,12,45,8.10
2010,04,01,12,46,8.10
2010,04,01,12,47,4.80
2010,04,01,12,48,4.80
2010,04,01,12,49,8.10
2010,04,01,12,50,9.60
2010,04,01,12,51,6.40
2010,04,01,12,52,6.40
2010,04,01,12,53,6.40
2010,04,01,12,54,3.20
2010,04,01,12,55,4.80
2010,04,01,12,56,8.10
2010,04,01,12,57,6.40
2010,04,01,12,58,3.20
2010,04,01,12,59,6.40
2010,04,01,13,00,8.10
2010,04,01,13,01,8.10
2010,04,01,13,02,6.40
2010,04,01,13,03,8.10
2010,04,01,13,04,8.10
2010,04,01,13,05,8.10
2010,04,01,13,06,9.60
2010,04,01,13,07,9.60
2010,04,01,13,08,9.60
2010,04,01,13,09,9.60
2010,04,01,13,10,8.10
2010,04,01,13,11,14.50
2010,04,01,13,12,12.90
2010,04,01,13,13,16.10
2010,04,01,13,14,16.10
2010,04,01,13,15,16.10
2010,04,01,13,16,14.50
2010,04,01,13,17,14.50
2010,04,01,13,18,8.10
2010,04,01,13,19,11.30
2010,04,01,13,20,9.60
2010,04,01,13,21,6.40
2010,04,01,13,22,6.40
2010,04,01,13,23,6.40
2010,04,01,13,24,3.20
2010,04,01,13,25,4.80
2010,04,01,13,26,8.10
2010,04,01,13,27,4.80
2010,04,01,13,28,3.20
2010,04,01,13,29,3.20
2010,04,01,13,30,3.20
2010,04,01,13,31,6.40
2010,04,01,13,32,8.10
2010,04,01,13,33,9.60
2010,04,01,13,34,14.50
2010,04,01,13,35,16.10
2010,04,01,13,36,16.10
2010,04,01,13,37,11.30
2010,04,01,13,38,11.30
2010,04,01,13,39,16.10
2010,04,01,13,40,11.30
2010,04,01,13,41,9.60
2010,04,01,13,42,12.90
2010,04,01,13,43,9.60
2010,04,01,13,44,8.10
2010,04,01,13,45,16.10
2010,04,01,13,46,11.30
2010,04,01,13,47,11.30
2010,04,01,13,48,16.10
2010,04,01,13,49,12.90
2010,04,01,13,50,16.10
2010,04,01,13,51,16.10
2010,04,01,13,52,14.50
2010,04,01,13,53,19.30
2010,04,01,13,54,11.30
2010,04,01,13,55,14.50
2010,04,01,13,56,8.10
2010,04,01,13,57,16.10
2010,04,01,13,58,17.70
2010,04,01,13,59,19.30
2010,04,01,14,00,19.30
2010,04,01,14,01,20.90
2010,04,01,14,02,14.50
2010,04,01,14,03,16.10
2010,04,01,14,04,17.70
2010,04,01,14,05,17.70
2010,04,01,14,06,14.50
2010,04,01,14,07,17.70
2010,04,01,14,08,12.90
2010,04,01,14,09,17.70
2010,04,01,14,10,24.20
2010,04,01,14,11,20.90
2010,04,01,14,12,17.70
2010,04,01,14,13,16.10
2010,04,01,14,14,17.70
2010,04,01,14,15,12.90
2010,04,01,14,16,19.30
2010,04,01,14,17,19.30
2010,04,01,14,18,17.70
2010,04,01,14,19,8.10
2010,04,01,14,20,12.90
2010,04,01,14,21,17.70
2010,04,01,14,22,24.20
2010,04,01,14,23,14.50
2010,04,01,14,24,16.10
2010,04,01,14,25,14.50
2010,04,01,14,26,9.60
2010,04,01,14,27,16.10
2010,04,01,14,28,14.50
2010,04,01,14,29,16.10
2010,04,01,14,30,16.10
2010,04,01,14,31,17.70
2010,04,01,14,32,8.10
2010,04,01,14,33,9.60
2010,04,01,14,34,8.10
2010,04,01,14,35,9.60
2010,04,01,14,36,9.60
2010,04,01,14,37,6.40
2010,04,01,14,38,9.60
2010,04,01,14,39,6.40
2010,04,01,14,40,3.20
2010,04,01,14,41,4.80
2010,04,01,14,42,6.40
2010,04,01,14,43,6.40
2010,04,01,14,44,4.80
2010,04,01,14,45,8.10
2010,04,01,14,46,9.60
2010,04,01,14,47,17.70
2010,04,01,14,48,16.10
2010,04,01,14,49,11.30
2010,04,01,14,50,20.90
2010,04,01,14,51,19.30
2010,04,01,14,52,22.50
2010,04,01,14,53,19.30
2010,04,01,14,54,12.90
2010,04,01,14,55,11.30
2010,04,01,14,56,16.10
2010,04,01,14,57,22.50
2010,04,01,14,58,16.10
2010,04,01,14,59,14.50
2010,04,01,15,00,22.50
2010,04,01,15,01,19.30
2010,04,01,15,02,19.30
2010,04,01,15,03,19.30
2010,04,01,15,04,19.30
2010,04,01,15,05,19.30
2010,04,01,15,06,19.30
2010,04,01,15,07,22.50
2010,04,01,15,08,16.10
2010,04,01,15,09,19.30
2010,04,01,15,10,19.30
2010,04,01,15,11,29.00
2010,04,01,15,12,27.40
2010,04,01,15,13,24.20
2010,04,01,15,14,19.30
2010,04,01,15,15,17.70
2010,04,01,15,16,20.90
2010,04,01,15,17,22.50
2010,04,01,15,18,30.60
2010,04,01,15,19,22.50
2010,04,01,15,20,32.20
2010,04,01,15,21,35.40
2010,04,01,15,22,35.40
2010,04,01,15,23,32.20
2010,04,01,15,24,33.80
2010,04,01,15,25,32.20
2010,04,01,15,26,25.70
2010,04,01,15,27,32.20
2010,04,01,15,28,14.50
2010,04,01,15,29,22.50
2010,04,01,15,30,32.20
2010,04,01,15,31,37.00
2010,04,01,15,32,33.80
2010,04,01,15,33,40.20
2010,04,01,15,34,35.40
2010,04,01,15,35,32.20
2010,04,01,15,36,30.60
2010,04,01,15,37,29.00
2010,04,01,15,38,30.60
2010,04,01,15,39,30.60
2010,04,01,15,40,27.40
2010,04,01,15,41,20.90
2010,04,01,15,42,20.90
2010,04,01,15,43,27.40
2010,04,01,15,44,32.20
2010,04,01,15,45,27.40
2010,04,01,15,46,27.40
2010,04,01,15,47,24.20
2010,04,01,15,48,32.20
2010,04,01,15,49,24.20
2010,04,01,15,50,22.50
2010,04,01,15,51,22.50
2010,04,01,15,52,27.40
2010,04,01,15,53,22.50
2010,04,01,15,54,25.70
2010,04,01,15,55,20.90
2010,04,01,15,56,22.50
2010,04,01,15,57,25.70
2010,04,01,15,58,32.20
2010,04,01,15,59,27.40
2010,04,01,16,00,30.60
2010,04,01,16,01,25.70
2010,04,01,16,02,32.20
2010,04,01,16,03,32.20
2010,04,01,16,04,35.40
2010,04,01,16,05,32.20
2010,04,01,16,06,24.20
2010,04,01,16,07,33.80
2010,04,01,16,08,24.20
2010,04,01,16,09,25.70
2010,04,01,16,10,27.40
2010,04,01,16,11,25.70
2010,04,01,16,12,29.00
2010,04,01,16,13,30.60
2010,04,01,16,14,32.20
2010,04,01,16,15,29.00
2010,04,01,16,16,27.40
2010,04,01,16,17,27.40
2010,04,01,16,18,20.90
2010,04,01,16,19,29.00
2010,04,01,16,20,32.20
2010,04,01,16,21,27.40
2010,04,01,16,22,32.20
2010,04,01,16,23,30.60
2010,04,01,16,24,35.40
2010,04,01,16,25,32.20
2010,04,01,16,26,25.70
2010,04,01,16,27,27.40
2010,04,01,16,28,24.20
2010,04,01,16,29,32.20
2010,04,01,16,30,33.80
2010,04,01,16,31,27.40
2010,04,01,16,32,24.20
2010,04,01,16,33,29.00
2010,04,01,16,34,25.70
2010,04,01,16,35,24.20
2010,04,01,16,36,29.00
2010,04,01,16,37,27.40
2010,04,01,16,38,25.70
2010,04,01,16,39,27.40
2010,04,01,16,40,32.20
2010,04,01,16,41,25.70
2010,04,01,16,42,25.70
2010,04,01,16,43,29.00
2010,04,01,16,44,29.00
2010,04,01,16,45,33.80
2010,04,01,16,46,32.20
2010,04,01,16,47,29.00
2010,04,01,16,48,33.80
2010,04,01,16,49,30.60
2010,04,01,16,50,30.60
2010,04,01,16,51,29.00
2010,04,01,16,52,33.80
2010,04,01,16,53,30.60
2010,04,01,16,54,32.20
2010,04,01,16,55,33.80
2010,04,01,16,56,29.00
2010,04,01,16,57,29.00
2010,04,01,16,58,30.60
2010,04,01,16,59,25.70
2010,04,01,17,00,43.50
2010,04,01,17,01,40.20
2010,04,01,17,02,35.40
2010,04,01,17,03,38.60
2010,04,01,17,04,35.40
2010,04,01,17,05,33.80
2010,04,01,17,06,24.20
2010,04,01,17,07,29.00
2010,04,01,17,08,41.80
2010,04,01,17,09,43.50
2010,04,01,17,10,30.60
2010,04,01,17,11,20.90
2010,04,01,17,12,22.50
2010,04,01,17,13,29.00
2010,04,01,17,14,22.50
2010,04,01,17,15,25.70
2010,04,01,17,16,22.50
2010,04,01,17,17,32.20
2010,04,01,17,18,32.20
2010,04,01,17,19,14.50
2010,04,01,17,20,25.70
2010,04,01,17,21,29.00
2010,04,01,17,22,29.00
2010,04,01,17,23,29.00
2010,04,01,17,24,25.70
2010,04,01,17,25,32.20
2010,04,01,17,26,27.40
2010,04,01,17,27,27.40
2010,04,01,17,28,25.70
2010,04,01,17,29,35.40
2010,04,01,17,30,25.70
2010,04,01,17,31,27.40
2010,04,01,17,32,29.00
2010,04,01,17,33,32.20
2010,04,01,17,34,29.00
2010,04,01,17,35,35.40
2010,04,01,17,36,30.60
2010,04,01,17,37,30.60
2010,04,01,17,38,33.80
2010,04,01,17,39,27.40
2010,04,01,17,40,33.80
2010,04,01,17,41,32.20
2010,04,01,17,42,30.60
2010,04,01,17,43,35.40
2010,04,01,17,44,35.40
2010,04,01,17,45,32.20
2010,04,01,17,46,29.00
2010,04,01,17,47,38.60
2010,04,01,17,48,25.70
2010,04,01,17,49,29.00